• In Latvia
  • List of Countries
  • For 7 days
  • Water Temperature
  • Satellite Maps
  • Weather Map
  • Weather Widgets
  • user-avatar
    Login

    Hourly Weather Lankaran

    Today, 21 July, Friday

    Time Temperature Precipitation Wind Pressure Humidity
    00:00 +20°C° 0 mm 1 mps 632 mmHg 32%
    01:00 +20°C° 0 mm 1 mps 632 mmHg 32%
    02:00 +20°C° 0 mm 1 mps 632 mmHg 32%
    03:00 +19°C° 0 mm 1 mps 632 mmHg 36%
    04:00 +21°C° 0 mm 1 mps 632 mmHg 34%
    05:00 +22°C° 0 mm 1 mps 633 mmHg 32%
    06:00 +23°C° 0 mm 1 mps 633 mmHg 31%
    07:00 +25°C° 0 mm 1 mps 634 mmHg 27%
    08:00 +27°C° 0 mm 2 mps 635 mmHg 23%
    09:00 +29°C° 0 mm 2 mps 635 mmHg 20%
    10:00 +30°C° 0 mm 3 mps 635 mmHg 19%
    11:00 +31°C° 0 mm 3 mps 636 mmHg 18%
    12:00 +33°C° 0 mm 3 mps 636 mmHg 17%
    13:00 +33°C° 0 mm 4 mps 635 mmHg 17%
    14:00 +33°C° 0 mm 4 mps 635 mmHg 17%
    15:00 +33°C° 0 mm 4 mps 635 mmHg 17%
    16:00 +30°C° 0 mm 3 mps 635 mmHg 19%
    17:00 +29°C° 0 mm 3 mps 635 mmHg 21%
    18:00 +27°C° 0 mm 3 mps 634 mmHg 23%
    19:00 +25°C° 0 mm 2 mps 634 mmHg 26%
    20:00 +23°C° 0 mm 2 mps 634 mmHg 29%
    21:00 +21°C° 0 mm 1 mps 634 mmHg 31%
    22:00 +21°C° 0 mm 1 mps 634 mmHg 31%
    23:00 +21°C° 0 mm 1 mps 634 mmHg 30%

    Tomorrow, 22 July, Saturday

    Time Temperature Precipitation Wind Pressure Humidity
    00:00 +20°C° 0 mm 1 mps 634 mmHg 30%
    01:00 +20°C° 0 mm 1 mps 634 mmHg 29%
    02:00 +19°C° 0 mm 1 mps 634 mmHg 29%
    03:00 +19°C° 0 mm 1 mps 634 mmHg 29%
    04:00 +20°C° 0 mm 1 mps 634 mmHg 28%
    05:00 +21°C° 0 mm 1 mps 635 mmHg 26%
    06:00 +22°C° 0 mm 1 mps 635 mmHg 25%
    07:00 +24°C° 0 mm 2 mps 636 mmHg 23%
    08:00 +26°C° 0 mm 2 mps 636 mmHg 21%
    09:00 +28°C° 0 mm 3 mps 637 mmHg 19%
    10:00 +29°C° 0 mm 3 mps 637 mmHg 18%
    11:00 +31°C° 0 mm 3 mps 637 mmHg 17%
    12:00 +33°C° 0 mm 4 mps 637 mmHg 17%
    13:00 +33°C° 0 mm 4 mps 637 mmHg 17%
    14:00 +33°C° 0 mm 4 mps 636 mmHg 17%
    15:00 +33°C° 0 mm 4 mps 636 mmHg 17%
    16:00 +32°C° 0 mm 4 mps 635 mmHg 20%
    17:00 +29°C° 0 mm 3 mps 635 mmHg 22%
    18:00 +28°C° 0 mm 3 mps 635 mmHg 25%
    19:00 +26°C° 0 mm 2 mps 634 mmHg 28%
    20:00 +24°C° 0 mm 2 mps 634 mmHg 31%
    21:00 +21°C° 0 mm 2 mps 634 mmHg 35%
    22:00 +20°C° 0 mm 2 mps 634 mmHg 33%
    23:00 +20°C° 0 mm 2 mps 633 mmHg 31%

    Day after tomorrow, 23 July, Sunday

    Time Temperature Precipitation Wind Pressure Humidity
    00:00 +20°C° 0 mm 2 mps 633 mmHg 29%
    01:00 +20°C° 0 mm 1 mps 633 mmHg 28%
    02:00 +20°C° 0 mm 1 mps 633 mmHg 28%
    03:00 +20°C° 0 mm 1 mps 632 mmHg 27%
    04:00 +21°C° 0 mm 1 mps 633 mmHg 26%
    05:00 +22°C° 0 mm 1 mps 633 mmHg 25%
    06:00 +21°C° 0 mm 0 mps 633 mmHg 24%
    07:00 +25°C° 0 mm 1 mps 634 mmHg 20%
    08:00 +27°C° 0 mm 1 mps 634 mmHg 17%
    09:00 +30°C° 0 mm 2 mps 635 mmHg 13%
    10:00 +31°C° 0 mm 2 mps 635 mmHg 13%
    11:00 +33°C° 0 mm 3 mps 635 mmHg 13%
    12:00 +34°C° 0 mm 3 mps 635 mmHg 13%
    13:00 +34°C° 0 mm 3 mps 634 mmHg 14%
    14:00 +34°C° 0 mm 3 mps 634 mmHg 15%
    15:00 +34°C° 0 mm 4 mps 634 mmHg 15%
    16:00 +33°C° 0 mm 3 mps 633 mmHg 19%
    17:00 +30°C° 0 mm 3 mps 633 mmHg 23%
    18:00 +29°C° 0 mm 3 mps 632 mmHg 27%
    19:00 +26°C° 0 mm 2 mps 632 mmHg 32%
    20:00 +24°C° 0 mm 2 mps 632 mmHg 37%
    21:00 +21°C° 0 mm 2 mps 631 mmHg 43%
    22:00 +22°C° 0 mm 1 mps 631 mmHg 41%
    23:00 +21°C° 0 mm 1 mps 631 mmHg 39%

    24 July, Monday

    Time Temperature Precipitation Wind Pressure Humidity
    00:00 +21°C° 0 mm 1 mps 631 mmHg 37%
    01:00 +20°C° 0 mm 1 mps 631 mmHg 37%
    02:00 +19°C° 0 mm 2 mps 631 mmHg 37%
    03:00 +18°C° 0 mm 2 mps 631 mmHg 37%
    04:00 +19°C° 0 mm 2 mps 632 mmHg 38%
    05:00 +19°C° 0 mm 2 mps 632 mmHg 40%
    06:00 +20°C° 0 mm 3 mps 632 mmHg 41%
    07:00 +22°C° 0 mm 3 mps 633 mmHg 37%
    08:00 +25°C° 0 mm 3 mps 634 mmHg 33%
    09:00 +27°C° 0 mm 4 mps 634 mmHg 29%
    10:00 +28°C° 0 mm 4 mps 634 mmHg 28%
    11:00 +29°C° 0 mm 4 mps 634 mmHg 27%
    12:00 +30°C° 0 mm 4 mps 634 mmHg 26%
    13:00 +30°C° 0 mm 4 mps 634 mmHg 28%
    14:00 +30°C° 0 mm 4 mps 633 mmHg 29%
    15:00 +30°C° 0 mm 4 mps 633 mmHg 31%
    16:00 +28°C° 0 mm 4 mps 633 mmHg 37%
    17:00 +26°C° 0 mm 4 mps 632 mmHg 43%
    18:00 +25°C° 0 mm 3 mps 632 mmHg 49%
    19:00 +22°C° 0 mm 3 mps 632 mmHg 55%
    20:00 +20°C° 0 mm 2 mps 632 mmHg 61%
    21:00 +18°C° 0 mm 2 mps 631 mmHg 66%
    22:00 +18°C° 0 mm 2 mps 631 mmHg 62%
    23:00 +18°C° 0 mm 2 mps 631 mmHg 58%

    25 July, Tuesday

    Time Temperature Precipitation Wind Pressure Humidity
    00:00 +18°C° 0 mm 2 mps 631 mmHg 54%
    01:00 +17°C° 0 mm 2 mps 631 mmHg 53%
    02:00 +17°C° 0 mm 2 mps 631 mmHg 53%
    03:00 +17°C° 0 mm 2 mps 631 mmHg 52%
    04:00 +18°C° 0 mm 2 mps 631 mmHg 50%
    05:00 +19°C° 0 mm 2 mps 632 mmHg 48%
    06:00 +20°C° 0 mm 2 mps 632 mmHg 45%
    07:00 +23°C° 0 mm 2 mps 633 mmHg 39%
    08:00 +25°C° 0 mm 2 mps 633 mmHg 34%
    09:00 +28°C° 0 mm 2 mps 634 mmHg 28%
    10:00 +29°C° 0 mm 3 mps 633 mmHg 26%
    11:00 +30°C° 0 mm 3 mps 633 mmHg 25%
    12:00 +31°C° 0 mm 3 mps 633 mmHg 23%
    13:00 +31°C° 0 mm 3 mps 633 mmHg 24%
    14:00 +31°C° 0 mm 3 mps 633 mmHg 25%
    15:00 +31°C° 0 mm 3 mps 632 mmHg 27%
    16:00 +30°C° 0 mm 3 mps 632 mmHg 32%
    17:00 +28°C° 0 mm 3 mps 631 mmHg 37%
    18:00 +27°C° 0 mm 2 mps 631 mmHg 43%
    19:00 +25°C° 0 mm 2 mps 631 mmHg 49%
    20:00 +23°C° 0 mm 1 mps 631 mmHg 55%
    21:00 +21°C° 0 mm 1 mps 631 mmHg 61%
    22:00 +21°C° 0 mm 1 mps 631 mmHg 59%
    23:00 +20°C° 0 mm 1 mps 630 mmHg 57%

    26 July, Wednesday

    Time Temperature Precipitation Wind Pressure Humidity
    00:00 +20°C° 0 mm 1 mps 630 mmHg 55%
    01:00 +20°C° 0 mm 1 mps 630 mmHg 55%
    02:00 +19°C° 0 mm 1 mps 630 mmHg 55%
    03:00 +18°C° 0 mm 2 mps 630 mmHg 55%
    04:00 +20°C° 0 mm 1 mps 631 mmHg 52%
    05:00 +21°C° 0 mm 1 mps 631 mmHg 50%
    06:00 +22°C° 0 mm 1 mps 632 mmHg 47%
    07:00 +24°C° 0 mm 1 mps 632 mmHg 41%
    08:00 +26°C° 0 mm 2 mps 633 mmHg 36%
    09:00 +28°C° 0 mm 2 mps 634 mmHg 30%
    10:00 +29°C° 0 mm 2 mps 634 mmHg 27%
    11:00 +30°C° 0 mm 3 mps 634 mmHg 25%
    12:00 +33°C° 0 mm 3 mps 634 mmHg 23%
    13:00 +33°C° 0 mm 3 mps 633 mmHg 23%
    14:00 +33°C° 0 mm 3 mps 633 mmHg 24%
    15:00 +33°C° 0 mm 3 mps 633 mmHg 24%
    16:00 +30°C° 0 mm 3 mps 633 mmHg 27%
    17:00 +29°C° 0 mm 3 mps 633 mmHg 31%
    18:00 +28°C° 0 mm 3 mps 632 mmHg 34%
    19:00 +26°C° 0 mm 2 mps 632 mmHg 39%
    20:00 +24°C° 0 mm 2 mps 632 mmHg 44%
    21:00 +22°C° 0 mm 1 mps 632 mmHg 49%
    22:00 +21°C° 0 mm 1 mps 632 mmHg 48%
    23:00 +21°C° 0 mm 1 mps 632 mmHg 47%
    Show more